Location: Leiter
(44.7178°N, 106.2687°W)
Time: 01:25:48
(UTC+00:00)

CUTE 1.7 + AOD 2 - Pass Details

Date: 28 June 2022
Orbit: 589 x 608 km, 97.7° (Epoch: 08 August)

Event Time Altitude Azimuth Distance (km) Brightness Sun altitude
Rises 09:37:56 0° 35° (NE) 2,852 ? -13.9°
Reaches altitude 10° 09:41:53 10° 73° (ENE) 1,936 ? -13.5°
Maximum altitude 09:42:59 11° 88° (E) 1,875 ? -13.4°
Drops below altitude 10° 09:44:05 10° 103° (ESE) 1,928 ? -13.3°
Sets 09:47:59 0° 141° (SE) 2,817 ? -12.9°
